Flag for Germany Weather past 2 weeks in Schleswig, Schleswig-Holstein, Germany

Now
33 °F

Passing clouds.


Feels Like: 30 °F
Forecast: 38 / 57 °F
Wind: 3 mph from North

Location: Schleswig


UV Index: 3 (Moderate)

Visibility: 25 mi


Pressure: 30.43 "Hg

Humidity: 81%

Dew point: 28 °F

Location of SchleswigLocation

Historic Weather in Schleswig

°F

Schleswig temperature yesterday

Maximum temperature yesterday: 54 °F (at 4:00 PM)
Minimum temperature yesterday: 38 °F (at 5:00 AM)
Average temperature yesterday: 48 °F

Past Weeks' High & Low Weather Summary

 TemperatureHumidityPressure
High62 °F (Apr 7, 6:00 PM)100% (Apr 1, 6:00 AM)30.43 "Hg (Apr 1, 6:00 AM)
Low33 °F (Apr 16, 6:00 AM)39% (Apr 15, 3:00 PM)29.60 "Hg (Apr 8, 9:00 AM)
Average46 °F86%29.94 "Hg
* Reported Apr 1 6:00 AM — Apr 16 6:00 AM, Schleswig, Weather by CustomWeather, © 2014

Note: Actual official high and low records may vary slightly from our data, if they occured in-between our weather recording intervals... More about our weather records

Advertising

Historic Weather Conditions — Data for Previous 24 hours

 ConditionsComfort  
Time TempWeatherWind HumidityBarometerVisibility
6:00 AM
Apr 16
33 °FPassing clouds.3 mph81%30.43 "Hg25 mi
5:00 AM34 °FClear.2 mph80%30.42 "Hg25 mi
4:00 AM35 °FPassing clouds.3 mph79%30.42 "Hg25 mi
3:00 AM35 °FClear.3 mph85%30.40 "Hg25 mi
12:00 AM39 °FClear.1 mph74%30.38 "Hg25 mi
10:00 PM
Apr 15
44 °FPassing clouds.3 mph61%30.34 "Hg25 mi
9:00 PM46 °FPassing clouds.3 mph51%30.31 "Hg25 mi
8:00 PM49 °FPassing clouds.5 mph44%30.29 "Hg25 mi
7:00 PM50 °FScattered clouds.6 mph42%30.27 "Hg25 mi
6:00 PM50 °FScattered clouds.7 mph39%30.24 "Hg25 mi
4:00 PM54 °FScattered clouds.6 mph39%30.22 "Hg25 mi
3:00 PM53 °FScattered clouds.8 mph39%30.21 "Hg25 mi
2:00 PM53 °FScattered clouds.6 mph44%30.20 "Hg19 mi
1:00 PM51 °FPassing clouds.6 mph45%30.18 "Hg25 mi
12:00 PM50 °FPassing clouds.5 mph51%30.18 "Hg22 mi
10:00 AM45 °FSunny.7 mph62%30.14 "Hg19 mi
9:00 AM43 °FSunny.7 mph72%30.12 "Hg19 mi
8:00 AM40 °FSunny.7 mph82%30.09 "Hg16 mi
Weather by CustomWeather, © 2014

See weather overview